TimeCDT,TemperatureF,Dew PointF,Humidity,Sea Level PressureIn,VisibilityMPH,Wind Direction,Wind SpeedMPH,Gust SpeedMPH,PrecipitationIn,Events,Conditions,WindDirDegrees,DateUTC
12:55 AM,72.0,66.9,84,29.72,10.0,South,19.6,29.9,N/A,,Clear,170,2013-05-27 05:55:00
1:55 AM,72.0,66.9,84,29.74,10.0,SE,12.7,-,N/A,,Clear,130,2013-05-27 06:55:00
2:13 AM,71.6,66.2,83,29.79,10.0,ESE,9.2,-,N/A,,Mostly Cloudy,120,2013-05-27 07:13:00
2:55 AM,72.0,66.9,84,29.73,10.0,SSE,17.3,25.3,N/A,,Overcast,150,2013-05-27 07:55:00
3:55 AM,72.0,66.9,84,29.71,10.0,SSE,15.0,24.2,N/A,,Overcast,150,2013-05-27 08:55:00
4:55 AM,71.1,66.9,87,29.69,10.0,SSE,15.0,-,N/A,,Overcast,150,2013-05-27 09:55:00
5:31 AM,71.6,66.2,83,29.74,10.0,SSE,12.7,-,N/A,,Partly Cloudy,160,2013-05-27 10:31:00
5:52 AM,71.6,66.2,83,29.78,10.0,NE,16.1,21.9,N/A,,Mostly Cloudy,40,2013-05-27 10:52:00
5:55 AM,71.1,66.9,87,29.74,10.0,NE,15.0,21.9,N/A,,Mostly Cloudy,40,2013-05-27 10:55:00
6:04 AM,69.8,62.6,78,29.78,10.0,ENE,16.1,27.6,N/A,,Overcast,70,2013-05-27 11:04:00
6:47 AM,69.8,64.4,83,29.78,10.0,ENE,3.5,-,N/A,,Overcast,70,2013-05-27 11:47:00
6:55 AM,69.1,64.0,84,29.74,10.0,East,12.7,-,N/A,,Overcast,90,2013-05-27 11:55:00
7:55 AM,64.0,59.0,84,29.75,10.0,East,16.1,23.0,N/A,,Overcast,90,2013-05-27 12:55:00
8:25 AM,62.6,59.0,88,29.81,10.0,East,17.3,27.6,N/A,,Overcast,90,2013-05-27 13:25:00
8:55 AM,63.0,59.0,87,29.78,10.0,East,17.3,28.8,0.00,Rain,Light Rain,100,2013-05-27 13:55:00
9:40 AM,62.6,59.0,88,29.83,10.0,East,9.2,21.9,0.00,Rain,Light Rain,100,2013-05-27 14:40:00
9:55 AM,63.0,59.0,87,29.79,10.0,East,17.3,32.2,0.00,Rain,Light Rain,100,2013-05-27 14:55:00
10:12 AM,62.6,60.8,94,29.81,10.0,ESE,20.7,33.4,0.00,Rain,Light Rain,110,2013-05-27 15:12:00
10:24 AM,62.6,60.8,94,29.80,10.0,ESE,24.2,36.8,0.00,Rain,Light Rain,110,2013-05-27 15:24:00
10:55 AM,66.9,61.0,81,29.74,10.0,ESE,24.2,35.7,0.00,,Mostly Cloudy,120,2013-05-27 15:55:00
11:55 AM,73.9,60.1,62,29.72,10.0,ESE,24.2,33.4,N/A,,Clear,120,2013-05-27 16:55:00
12:55 PM,79.0,61.0,54,29.69,10.0,SE,23.0,32.2,N/A,,Partly Cloudy,130,2013-05-27 17:55:00
1:55 PM,78.1,62.1,58,29.67,10.0,SE,24.2,28.8,N/A,,Mostly Cloudy,140,2013-05-27 18:55:00
2:55 PM,80.1,64.9,60,29.64,10.0,South,19.6,26.5,N/A,,Mostly Cloudy,170,2013-05-27 19:55:00
3:55 PM,82.9,66.9,58,29.60,10.0,SSE,19.6,25.3,N/A,,Scattered Clouds,150,2013-05-27 20:55:00
4:55 PM,81.0,68.0,65,29.57,10.0,ESE,13.8,-,N/A,,Mostly Cloudy,110,2013-05-27 21:55:00
5:55 PM,82.0,68.0,62,29.52,10.0,SSE,19.6,28.8,N/A,,Partly Cloudy,160,2013-05-27 22:55:00
6:55 PM,79.0,68.0,69,29.52,10.0,SSE,16.1,26.5,N/A,,Scattered Clouds,150,2013-05-27 23:55:00
7:55 PM,78.1,66.9,68,29.52,10.0,SE,13.8,-,N/A,Thunderstorm,Thunderstorm,140,2013-05-28 00:55:00
8:32 PM,73.4,69.8,88,29.64,2.5,SW,26.5,34.5,0.12,Rain-Thunderstorm,Heavy Thunderstorms and Rain,220,2013-05-28 01:32:00
8:34 PM,71.6,69.8,94,29.63,1.5,WSW,20.7,35.7,0.14,Rain-Thunderstorm,Heavy Thunderstorms and Rain,240,2013-05-28 01:34:00
8:41 PM,71.6,62.6,73,29.65,1.0,SSW,18.4,35.7,0.50,Rain-Thunderstorm,Heavy Thunderstorms and Rain,200,2013-05-28 01:41:00
8:46 PM,71.6,64.4,78,29.61,1.8,WSW,10.4,21.9,0.59,Rain-Thunderstorm,Heavy Thunderstorms and Rain,240,2013-05-28 01:46:00
8:52 PM,69.8,66.2,88,29.59,1.5,SSE,8.1,-,0.75,Rain-Thunderstorm,Heavy Thunderstorms and Rain,160,2013-05-28 01:52:00
8:55 PM,70.0,66.9,90,29.56,2.0,SSE,6.9,-,0.79,Rain-Thunderstorm,Heavy Thunderstorms and Rain,160,2013-05-28 01:55:00
9:04 PM,71.6,68.0,88,29.61,9.0,South,11.5,-,0.02,Rain-Thunderstorm,Light Thunderstorms and Rain,190,2013-05-28 02:04:00
9:24 PM,69.8,68.0,94,29.61,10.0,SSE,13.8,-,0.02,,Mostly Cloudy,160,2013-05-28 02:24:00
9:55 PM,72.0,69.1,91,29.60,10.0,NE,6.9,-,0.02,,Partly Cloudy,50,2013-05-28 02:55:00
10:09 PM,69.8,68.0,94,29.65,10.0,ENE,8.1,-,N/A,,Mostly Cloudy,70,2013-05-28 03:09:00
10:55 PM,72.0,69.1,91,29.61,10.0,ESE,11.5,-,N/A,,Overcast,120,2013-05-28 03:55:00
11:55 PM,69.1,66.9,93,29.61,10.0,ESE,9.2,-,N/A,,Overcast,120,2013-05-28 04:55:00